GW5671 Weather Reports


time (UTC)temp
C
wind
direction
speed
KPH
gust
KPH
rain 1hr
cm
rain 24hr
cm
rain mn
cm
humidity
%
barometer
mb
20260507172003 13 144 3.2 12.9 0.00 0.00 0.00 69 1014.3
20260507171505 13 142 3.2 14.5 0.00 0.00 0.00 70 1014.4
20260507171003 13 141 3.2 14.5 0.00 0.00 0.00 70 1014.3
20260507170005 13 154 3.2 14.5 0.00 0.00 0.00 70 1014.4
20260507165505 13 156 3.2 12.9 0.00 0.00 0.00 70 1014.4
20260507164505 13 147 3.2 11.3 0.00 0.00 0.00 69 1014.4
20260507164003 13 152 3.2 11.3 0.00 0.00 0.00 69 1014.4
20260507163503 13 177 1.6 11.3 0.00 0.00 0.00 69 1014.4
20260507163005 13 180 1.6 11.3 0.00 0.00 0.00 70 1014.4
20260507162003 14 151 4.8 16.1 0.00 0.00 0.00 69 1014.4
20260507161505 14 159 3.2 14.5 0.00 0.00 0.00 67 1014.4
20260507161003 14 153 3.2 12.9 0.00 0.00 0.00 68 1014.3
20260507160503 14 138 1.6 12.9 0.00 0.00 0.00 68 1014.3
20260507160005 14 143 1.6 11.3 0.00 0.00 0.00 70 1014.3
20260507155505 14 150 1.6 11.3 0.00 0.00 0.00 69 1014.3
20260507154503 14 144 4.8 14.5 0.00 0.00 0.00 67 1014.3
20260507154005 14 142 6.4 14.5 0.00 0.00 0.00 67 1014.3
20260507153504 14 141 4.8 14.5 0.00 0.00 0.00 66 1014.3
20260507152505 14 142 1.6 8.0 0.00 0.00 0.00 67 1014.4
20260507152005 14 140 3.2 11.3 0.00 0.00 0.00 67 1014.4
20260507151003 14 160 1.6 8.0 0.00 0.00 0.00 66 1014.5
20260507150505 14 180 1.6 8.0 0.00 0.00 0.00 67 1014.6
20260507145505 14 151 1.6 9.7 0.00 0.00 0.00 67 1014.5
20260507145003 14 155 3.2 12.9 0.00 0.00 0.00 67 1014.5
20260507144503 14 152 3.2 12.9 0.00 0.00 0.00 67 1014.5
20260507144005 14 153 1.6 12.9 0.00 0.00 0.00 67 1014.5
20260507142505 13 144 1.6 8.0 0.00 0.00 0.00 66 1014.8
20260507142003 13 141 1.6 6.4 0.00 0.00 0.00 67 1014.8
20260507141503 13 140 4.8 17.7 0.00 0.00 0.00 67 1014.8
20260507134505 14 144 6.4 14.5 0.00 0.00 0.00 65 1014.9
20260507132503 13 147 3.2 11.3 0.00 0.00 0.00 65 1014.9
20260507131005 13 131 4.8 14.5 0.00 0.00 0.00 62 1015.0
20260507125003 13 142 4.8 14.5 0.00 0.00 0.00 65 1015.1
20260507124005 13 149 6.4 17.7 0.00 0.00 0.00 64 1014.9
20260507123503 13 135 8.0 17.7 0.00 0.00 0.00 66 1014.9
20260507123003 13 133 8.0 17.7 0.00 0.00 0.00 64 1014.9
20260507122506 13 137 6.4 16.1 0.00 0.00 0.00 65 1014.8
20260507121503 14 131 8.0 16.1 0.00 0.00 0.00 66 1014.9
20260507121003 14 119 9.7 16.1 0.00 0.00 0.00 66 1014.8
20260507120505 14 127 11.3 17.7 0.00 0.00 0.00 65 1014.9
20260507120004 14 137 9.7 17.7 0.00 0.00 0.00 63 1015.0
20260507115503 15 137 8.0 17.7 0.00 0.00 0.00 64 1015.0
20260507115005 15 131 8.0 17.7 0.00 0.00 0.00 66 1015.1
20260507114505 14 117 9.7 19.3 0.00 0.00 0.00 66 1015.0
20260507113004 14 111 11.3 19.3 0.00 0.00 0.00 66 1015.1
20260507112505 14 109 9.7 19.3 0.00 0.00 0.00 67 1015.1
20260507111005 13 100 8.0 20.9 0.00 0.00 0.00 70 1015.2
20260507110504 13 108 11.3 20.9 0.00 0.00 0.00 72 1015.3
20260507104003 12 111 8.0 17.7 0.00 0.00 0.00 77 1015.7
20260507103503 12 109 6.4 17.7 0.00 0.00 0.00 78 1015.8
20260507102003 11 115 8.0 16.1 0.00 0.00 0.00 78 1015.9
20260507101005 11 121 9.7 19.3 0.00 0.00 0.00 81 1015.8
20260507100505 11 122 9.7 16.1 0.00 0.00 0.00 81 1015.8
20260507095003 10 93 8.0 12.9 0.00 0.00 0.00 82 1015.8
20260507094505 10 96 8.0 17.7 0.00 0.00 0.00 84 1015.8
20260507092005 8 98 8.0 14.5 0.00 0.00 0.00 84 1015.8
20260507091503 8 100 8.0 14.5 0.00 0.00 0.00 86 1015.8
20260507091005 8 94 6.4 12.9 0.00 0.00 0.00 86 1015.7
20260507090503 8 94 4.8 11.3 0.00 0.00 0.00 87 1015.7
20260507085003 8 99 4.8 11.3 0.00 0.00 0.00 89 1015.9
20260507084503 8 103 4.8 11.3 0.00 0.00 0.00 88 1015.8
20260507084005 8 99 4.8 11.3 0.00 0.00 0.00 89 1016.0
20260507083503 7 95 4.8 9.7 0.00 0.00 0.00 89 1015.9
20260507082505 7 90 3.2 9.7 0.00 0.00 0.00 89 1015.9
20260507082003 7 86 3.2 6.4 0.00 0.00 0.00 89 1015.9
20260507081503 7 88 3.2 9.7 0.00 0.00 0.00 89 1015.9
20260507081005 7 93 3.2 9.7 0.00 0.00 0.00 90 1015.9
20260507080503 7 96 3.2 6.4 0.00 0.00 0.00 90 1015.9
20260507080004 7 95 4.8 8.0 0.00 0.00 0.00 90 1015.8
20260507075505 7 89 3.2 8.0 0.00 0.00 0.00 90 1015.9
20260507075003 7 88 3.2 6.4 0.00 0.00 0.00 90 1015.9
20260507074503 7 99 3.2 9.7 0.00 0.00 0.00 90 1015.9
20260507073505 7 110 3.2 6.4 0.00 0.00 0.00 90 1015.8
20260507073004 7 108 3.2 9.7 0.00 0.00 0.00 90 1015.8
20260507072003 7 96 4.8 11.3 0.00 0.00 0.00 91 1015.7
20260507071003 6 89 3.2 6.4 0.00 0.00 0.00 91 1015.7
20260507070505 6 88 3.2 6.4 0.00 0.00 0.00 91 1015.7
20260507070010 6 94 3.2 6.4 0.00 0.00 0.00 91 1015.6
20260507065505 6 102 3.2 6.4 0.00 0.00 0.00 91 1015.5
20260507063505 6 85 3.2 6.4 0.00 0.00 0.00 91 1015.5
20260507063003 6 87 3.2 4.8 0.00 0.00 0.00 91 1015.5
20260507062003 6 74 1.6 6.4 0.00 0.00 0.00 92 1015.6
20260507061503 6 73 3.2 6.4 0.00 0.00 0.00 91 1015.5
20260507060503 6 80 1.6 6.4 0.00 0.00 0.00 91 1015.5
20260507060003 6 87 1.6 6.4 0.00 0.00 0.00 91 1015.6
20260507055505 6 90 3.2 6.4 0.00 0.00 0.00 91 1015.5
20260507054503 6 83 3.2 6.4 0.00 0.00 0.00 91 1015.5
20260507054005 6 83 1.6 4.8 0.00 0.00 0.00 91 1015.5
20260507053505 6 93 3.2 6.4 0.00 0.00 0.00 91 1015.5
20260507053004 6 92 3.2 6.4 0.00 0.00 0.00 91 1015.6
20260507052503 6 83 1.6 4.8 0.00 0.00 0.00 91 1015.6
20260507051503 6 80 1.6 6.4 0.00 0.00 0.00 91 1015.5
20260507051003 6 76 1.6 6.4 0.00 0.00 0.00 91 1015.5
20260507050008 6 102 1.6 4.8 0.00 0.00 0.00 91 1015.5
20260507045503 6 119 1.6 4.8 0.00 0.00 0.00 91 1015.5
20260507045005 6 103 1.6 6.4 0.00 0.00 0.00 91 1015.5
20260507044503 6 88 3.2 6.4 0.00 0.00 0.00 91 1015.4
20260507044003 6 88 1.6 4.8 0.00 0.00 0.00 91 1015.4
20260507043505 6 88 0.0 3.2 0.00 0.00 0.00 90 1015.3
20260507043003 6 0 0.0 0.0 0.00 0.00 0.00 91 1015.4
20260507042003 6 88 1.6 4.8 0.00 0.00 0.00 91 1015.3
20260507041505 6 88 1.6 4.8 0.00 0.00 0.00 90 1015.3
20260507041003 6 88 1.6 3.2 0.00 0.00 0.00 90 1015.3
20260507040503 6 88 1.6 4.8 0.00 0.00 0.00 90 1015.2
20260507040005 6 88 1.6 4.8 0.00 0.00 0.00 90 1015.3
20260507035505 6 88 1.6 4.8 0.00 0.00 0.00 90 1015.3
20260507035003 6 88 0.0 3.2 0.00 0.00 0.00 90 1015.4
20260507032503 6 88 3.2 4.8 0.00 0.00 0.00 90 1015.4
20260507032005 6 87 1.6 6.4 0.00 0.00 0.00 90 1015.3
20260507031003 6 91 3.2 4.8 0.00 0.00 0.00 90 1015.5
20260507030005 6 96 3.2 4.8 0.00 0.00 0.00 89 1015.4
20260507025504 6 85 3.2 6.4 0.00 0.00 0.00 89 1015.5
20260507025003 6 78 3.2 6.4 0.00 0.00 0.00 89 1015.4
20260507024507 6 82 3.2 6.4 0.00 0.00 0.00 89 1015.3
20260507023003 6 94 3.2 6.4 0.00 0.00 0.00 89 1015.3
20260507022506 6 103 3.2 6.4 0.00 0.00 0.00 89 1015.4
20260507022003 6 103 4.8 9.7 0.00 0.00 0.00 89 1015.4
20260507021505 6 93 3.2 9.7 0.00 0.00 0.00 89 1015.4
20260507021005 6 79 3.2 11.3 0.00 0.00 0.00 88 1015.3
20260507020003 6 77 4.8 9.7 0.00 0.00 0.00 88 1015.3
20260507015503 6 73 3.2 9.7 0.00 0.00 0.00 88 1015.2
20260507015005 6 62 3.2 9.7 0.00 0.00 0.00 88 1015.2
20260507014005 6 78 1.6 8.0 0.00 0.00 0.00 88 1015.2
20260507013503 6 78 3.2 8.0 0.00 0.00 0.00 88 1015.3
20260507012505 6 79 3.2 8.0 0.00 0.00 0.00 87 1015.3
20260507010003 7 79 3.2 6.4 0.00 0.00 0.00 87 1015.4
20260507005505 7 81 1.6 6.4 0.00 0.00 0.00 87 1015.4
20260507005005 7 84 1.6 6.4 0.00 0.00 0.00 87 1015.1
20260507004503 7 106 3.2 6.4 0.00 0.00 0.00 87 1015.2
20260507004003 7 120 3.2 4.8 0.00 0.00 0.00 87 1015.2
20260507003004 7 90 1.6 6.4 0.00 0.00 0.00 86 1015.2
20260507002503 7 89 1.6 6.4 0.00 0.00 0.00 86 1015.2
20260507002005 7 83 3.2 9.7 0.00 0.00 0.00 86 1015.4
20260507000505 7 87 4.8 12.9 0.00 0.00 0.00 86 1015.3
20260506235505 7 86 4.8 16.1 0.00 0.00 0.00 86 1015.3
20260506234506 7 89 6.4 12.9 0.00 0.00 0.00 85 1015.3
20260506233505 7 83 6.4 16.1 0.00 0.00 0.00 85 1015.2
20260506233005 7 80 6.4 16.1 0.00 0.00 0.00 85 1015.2
20260506230505 7 90 6.4 16.1 0.00 0.00 0.00 84 1015.2
20260506230004 7 94 4.8 14.5 0.00 0.00 0.00 83 1015.2
20260506225506 7 97 4.8 12.9 0.00 0.00 0.00 83 1015.1
20260506225003 7 95 4.8 12.9 0.00 0.00 0.00 83 1015.1
20260506224505 7 93 4.8 14.5 0.00 0.00 0.00 82 1015.1
20260506223505 7 96 6.4 14.5 0.00 0.00 0.00 82 1015.1
20260506223003 8 96 6.4 14.5 0.00 0.00 0.00 81 1015.1
20260506222503 8 92 6.4 14.5 0.00 0.00 0.00 81 1015.1
20260506221003 8 90 4.8 14.5 0.00 0.00 0.00 80 1015.2
20260506220505 8 95 4.8 9.7 0.00 0.00 0.00 79 1015.1
20260506220003 8 96 4.8 16.1 0.00 0.00 0.00 79 1015.2
20260506215503 8 96 6.4 16.1 0.00 0.00 0.00 78 1015.1
20260506215006 8 94 4.8 16.1 0.00 0.00 0.00 78 1015.1
20260506214505 8 87 4.8 16.1 0.00 0.00 0.00 78 1015.0
20260506213505 8 76 4.8 12.9 0.00 0.00 0.00 77 1014.9
20260506213004 8 76 4.8 11.3 0.00 0.00 0.00 77 1014.9
20260506212503 8 77 4.8 11.3 0.00 0.00 0.00 76 1014.8
20260506210505 8 80 4.8 12.9 0.00 0.00 0.00 75 1014.7
20260506205505 8 88 3.2 9.7 0.00 0.00 0.00 74 1014.7
20260506204005 8 86 3.2 9.7 0.00 0.00 0.00 73 1014.7
20260506203503 8 84 3.2 12.9 0.00 0.00 0.00 72 1014.6
20260506203003 9 84 3.2 12.9 0.00 0.00 0.00 72 1014.6
20260506202005 9 59 1.6 8.0 0.00 0.00 0.00 70 1014.4
20260506201503 9 49 1.6 8.0 0.00 0.00 0.00 69 1014.4
20260506200505 10 68 1.6 8.0 0.00 0.00 0.00 69 1014.3
20260506195505 10 87 3.2 11.3 0.00 0.00 0.00 68 1014.2
20260506195003 10 85 3.2 9.7 0.00 0.00 0.00 67 1014.2
20260506194503 10 84 3.2 9.7 0.00 0.00 0.00 66 1014.1
20260506194005 10 86 3.2 9.7 0.00 0.00 0.00 66 1014.1
20260506193503 10 78 1.6 9.7 0.00 0.00 0.00 65 1014.1
20260506193003 10 64 1.6 6.4 0.00 0.00 0.00 64 1014.1
20260506192505 11 65 0.0 3.2 0.00 0.00 0.00 63 1014.1
20260506192003 11 65 0.0 4.8 0.00 0.00 0.00 64 1014.0
20260506191503 11 70 1.6 4.8 0.00 0.00 0.00 63 1013.9
20260506191005 11 81 1.6 4.8 0.00 0.00 0.00 62 1013.9
20260506190503 11 92 1.6 4.8 0.00 0.00 0.00 62 1013.9
20260506190007 11 102 1.6 6.4 0.00 0.00 0.00 61 1013.9
20260506185003 11 110 1.6 4.8 0.00 0.00 0.00 59 1014.0
20260506184505 11 76 1.6 6.4 0.00 0.00 0.00 59 1014.0
20260506183005 12 67 3.2 11.3 0.00 0.00 0.00 57 1013.9
20260506182505 12 74 3.2 11.3 0.00 0.00 0.00 57 1013.9
20260506182003 12 94 3.2 9.7 0.00 0.00 0.00 58 1013.9
20260506181503 12 91 3.2 9.7 0.00 0.00 0.00 57 1013.9
20260506181005 12 94 3.2 11.3 0.00 0.00 0.00 57 1013.8
20260506180505 12 93 3.2 11.3 0.00 0.00 0.00 56 1013.8
20260506180006 12 89 3.2 11.3 0.00 0.00 0.00 55 1013.8
20260506175003 12 86 3.2 11.3 0.00 0.00 0.00 55 1013.7
20260506174503 13 76 3.2 11.3 0.00 0.00 0.00 55 1013.8
20260506173503 13 24 1.6 8.0 0.00 0.00 0.00 56 1013.7
20260506173003 13 2 3.2 8.0 0.00 0.00 0.00 58 1013.7
20260506172505 13 2 4.8 8.0 0.00 0.00 0.00 57 1013.8